Stations météo

réclame
Mon MeteoGroup
Nürburg/Barweiler, Allemagne (10506): Température de l'air & dewpoint: 12.01.2019 12:00:00 - 18.01.2019 12:00:00 (CET)Nürburg/Barweiler, Allemagne (10506): Température de l'air 5cm & Température de l'air -5cm: 12.01.2019 12:00:00 - 18.01.2019 12:00:00 (CET)Nürburg/Barweiler, Allemagne (10506): Température de l'air -20cm & Température de l'air -100cm: 12.01.2019 12:00:00 - 18.01.2019 12:00:00 (CET)Nürburg/Barweiler, Allemagne (10506): Vitesse du vent & gusts: 12.01.2019 12:00:00 - 18.01.2019 12:00:00 (CET)Nürburg/Barweiler, Allemagne (10506): Direction du vent: 12.01.2019 12:00:00 - 18.01.2019 12:00:00 (CET)Nürburg/Barweiler, Allemagne (10506): reduced air pressure: 12.01.2019 12:00:00 - 18.01.2019 12:00:00 (CET)Nürburg/Barweiler, Allemagne (10506): visibility: 12.01.2019 12:00:00 - 18.01.2019 12:00:00 (CET)Nürburg/Barweiler, Allemagne (10506): Ensoleillement: 12.01.2019 12:00:00 - 18.01.2019 12:00:00 (CET)Nürburg/Barweiler, Allemagne (10506): Quantités de précipitations: 12.01.2019 12:00:00 - 18.01.2019 12:00:00 (CET)
Date & Time tt [°C] td [°C] tt 5cm [°C] tt -5cm [°C] tt -20cm [°C] tt -100cm [°C] ff [km/h] ff [knt] fx [km/h] fx [knt] dd ppp [hPa] vv [km] sd [min] rr [mm]
18.01.2019 12:00:00 -0,1 -4,5 -0,5 0,4 1,9 5,5 5 3 9 5 SSW 1021,5 27 60 0,0
18.01.2019 11:00:00 -1,5 -5,0 -3,9 0,3 1,9 5,5 4 2 8 5 W 1021,6 19 60 0,0
18.01.2019 10:00:00 -1,8 -4,3 -3,8 0,3 1,9 5,5 5 3 8 4 SSW 1021,1 14 33 0,0
18.01.2019 09:00:00 -2,4 -3,8 -3,9 0,3 2,0 5,5 2 1 10 6 WSW 1020,5 9 0 0,0
18.01.2019 08:00:00 -2,5 -3,4 -6,3 0,3 2,0 5,5 6 3 17 9 N 1019,7 17 0 0,0
18.01.2019 07:00:00 -2,2 -3,4 -3,7 0,4 2,0 5,5 6 3 12 6 WNW 1019,4 17 0 0,0
18.01.2019 06:00:00 -1,8 -3,5 -2,6 0,4 2,1 5,5 7 4 15 8 WNW 1018,7 24 0 0,0
18.01.2019 05:00:00 -1,7 -3,5 -3,3 0,4 2,1 5,5 8 4 15 8 WNW 1018,0 28 0 0,0
18.01.2019 04:00:00 -1,3 -3,0 -2,2 0,4 2,1 5,5 10 5 24 13 W 1016,9 27 0 0,0
18.01.2019 03:00:00 -1,2 -2,6 -1,9 0,5 2,2 5,5 10 5 18 10 WNW 1016,5 31 0 0,0
18.01.2019 02:00:00 -1,1 -2,2 -1,8 0,5 2,2 5,5 9 5 19 11 W 1015,6 26 0 0,0
18.01.2019 01:00:00 -1,3 -2,8 -2,2 0,5 2,3 5,5 11 6 20 11 W 1015,1 36 0 0,0
18.01.2019 00:00:00 -1,5 -3,1 -3,3 0,6 2,3 5,5 13 7 23 12 W 1014,7 28 0 0,0
17.01.2019 23:00:00 -1,3 -3,2 -2,5 0,6 2,4 5,5 14 7 37 20 WNW 1014,1 41 0 0,0
17.01.2019 22:00:00 -0,9 -2,1 -1,7 0,7 2,5 5,5 21 12 37 20 WNW 1012,7 32 0 0,1
17.01.2019 21:00:00 -0,9 -2,2 -1,3 0,7 2,5 5,5 18 10 32 17 W 1011,4 2,2 0 0,0
17.01.2019 20:00:00 -0,9 -3,0 -1,8 0,7 2,6 5,5 14 7 22 12 WSW 1010,6 22 0 0,0
17.01.2019 19:00:00 -1,1 -1,5 -1,3 0,8 2,7 5,5 14 8 39 21 WNW 1010,1 7 0 0,1
17.01.2019 18:00:00 -0,3 -2,0 -1,1 1,2 2,7 5,5 22 12 39 21 W 1009,1 44 0 0,0
17.01.2019 17:00:00 0,2 -1,5 -0,3 1,6 2,7 5,5 22 12 40 21 W 1007,9 59 0 0,1
17.01.2019 16:00:00 0,6 0,0 0,2 2,1 2,8 5,5 16 8 27 15 W 1006,3 6 1 0,1
17.01.2019 15:00:00 1,2 0,1 0,9 2,0 2,8 5,5 19 11 37 20 W 1005,1 70 0 0,0
17.01.2019 14:00:00 0,8 0,3 -0,1 2,1 2,7 5,5 24 13 42 23 W 1004,2 9 0 2,3
17.01.2019 13:00:00 2,9 0,7 2,4 3,2 2,6 5,5 26 14 45 24 WSW 1003,3 17 7 0,0
17.01.2019 12:00:00 2,9 1,1 2,3 2,6 2,6 5,5 27 15 46 25 SW 1003,5 38 0 0,0
17.01.2019 11:00:00 2,7 1,0 2,4 2,2 2,6 5,5 23 12 - - SW 1004,1 55 - 0,0
17.01.2019 10:00:00 - - - - - - - - - - - - - - -
17.01.2019 09:00:00 2,2 0,7 1,1 1,6 2,6 5,5 14 7 27 15 WSW 1004,4 54 0 0,0
17.01.2019 08:00:00 2,2 1,1 1,4 1,8 2,6 5,5 17 9 27 15 WSW 1004,3 41 0 0,0
17.01.2019 07:00:00 2,2 1,2 1,5 1,8 2,5 5,5 14 8 27 15 SW 1004,3 22 0 0,0
17.01.2019 06:00:00 2,3 1,3 1,7 1,8 2,5 5,5 14 8 29 16 SW 1004,5 34 0 0,0
17.01.2019 05:00:00 2,3 1,4 1,8 1,8 2,5 5,5 15 8 32 17 WSW 1004,8 12 0 0,0
17.01.2019 04:00:00 2,3 1,3 1,7 1,7 2,5 5,5 17 9 37 20 SW 1004,8 19 0 0,0
17.01.2019 03:00:00 2,3 1,0 1,7 1,6 2,5 5,5 21 12 40 22 SW 1004,8 17 0 0,0
17.01.2019 02:00:00 2,2 0,8 1,7 1,5 2,5 5,5 21 12 37 20 SW 1005,0 10 0 0,0
17.01.2019 01:00:00 2,1 -0,1 1,7 1,4 2,5 5,5 13 7 41 22 SSW 1005,4 18 0 0,0
17.01.2019 00:00:00 2,3 -0,7 1,8 1,3 2,5 5,5 26 14 41 22 WSW 1005,6 22 0 0,0
16.01.2019 23:00:00 2,0 -1,1 1,5 1,2 2,6 5,5 22 12 46 25 SW 1005,9 19 0 0,0
16.01.2019 22:00:00 1,9 -1,1 1,4 1,2 2,6 5,5 29 15 45 25 WSW 1006,2 24 0 0,0
16.01.2019 21:00:00 2,1 -0,8 1,6 1,0 2,7 5,5 26 14 48 26 SW 1006,5 23 0 0,0
16.01.2019 20:00:00 2,0 -0,7 0,9 0,8 2,8 5,5 22 12 39 21 SW 1006,8 22 0 0,0
16.01.2019 19:00:00 1,4 -0,7 0,1 1,1 2,8 5,5 15 8 32 18 SSW 1007,4 18 0 0,0
16.01.2019 18:00:00 1,6 -0,9 0,5 1,6 2,9 5,5 16 9 32 18 SSW 1007,7 24 0 0,0
16.01.2019 17:00:00 2,4 -0,7 1,5 2,2 2,8 5,5 16 9 31 17 SSW 1007,9 28 0 0,0
16.01.2019 16:00:00 3,1 -0,6 2,3 2,5 2,8 5,5 13 7 28 15 SSW 1008,6 35 25 0,0
16.01.2019 15:00:00 3,3 -0,5 2,5 2,7 2,8 5,5 10 5 33 18 SW 1009,4 34 37 0,0
16.01.2019 14:00:00 2,4 -0,6 2,5 2,4 2,7 5,5 10 5 31 17 SSW 1010,8 35 0 0,0
16.01.2019 13:00:00 1,8 -0,9 1,7 2,1 2,7 5,5 18 10 33 18 SW 1012,1 25 0 0,0
16.01.2019 12:00:00 1,6 -1,1 1,5 1,9 2,8 5,5 19 10 37 20 SW 1013,2 23 0 0,0
16.01.2019 11:00:00 1,4 -0,9 1,3 1,7 2,8 5,5 15 8 31 17 SW 1014,2 21 0 0,0
16.01.2019 10:00:00 1,3 -0,8 1,0 1,7 2,8 5,5 14 7 29 16 SW 1014,5 20 0 0,0
16.01.2019 09:00:00 1,5 -0,9 1,0 1,7 2,8 5,5 18 10 32 17 SW 1014,5 17 0 0,0
16.01.2019 08:00:00 1,7 -0,6 1,1 1,9 2,8 5,5 18 10 34 19 SW 1014,8 18 0 0,0
16.01.2019 07:00:00 2,1 -0,2 1,4 2,0 2,8 5,5 18 10 32 18 SW 1015,0 11 0 0,0
16.01.2019 06:00:00 2,4 0,1 1,6 2,1 2,8 5,5 16 8 29 16 WSW 1015,6 25 0 0,0
16.01.2019 05:00:00 2,5 0,5 1,8 2,2 2,8 5,5 15 8 35 19 SW 1016,2 21 0 0,0
16.01.2019 04:00:00 2,6 0,9 1,8 2,2 2,8 5,5 15 8 29 15 SW 1016,8 19 0 0,0
16.01.2019 03:00:00 2,7 1,4 1,9 2,3 2,8 5,5 17 9 28 15 SW 1017,3 17 0 0,0
16.01.2019 02:00:00 2,8 1,6 2,1 2,3 2,8 5,5 16 8 27 15 SW 1017,6 9 0 0,0
16.01.2019 01:00:00 2,9 1,8 2,2 2,3 2,8 5,5 15 8 24 13 SW 1018,0 16 0 0,0
16.01.2019 00:00:00 2,8 2,0 2,2 2,2 2,8 5,5 13 7 22 12 SW 1018,4 9 0 0,0
15.01.2019 23:00:00 2,5 1,8 2,0 2,1 2,8 5,5 12 7 22 12 SW 1018,9 7 0 0,1
15.01.2019 22:00:00 2,6 1,5 1,8 2,1 2,8 5,5 13 7 23 12 WSW 1019,2 23 0 0,0
15.01.2019 21:00:00 2,6 1,6 2,0 2,3 2,8 5,5 13 7 24 13 WSW 1019,3 23 0 0,1
15.01.2019 20:00:00 2,8 1,5 2,1 2,3 2,7 5,5 15 8 26 14 WSW 1019,5 10 0 0,0
15.01.2019 19:00:00 3,0 1,1 2,2 2,3 2,7 5,5 13 7 27 14 WSW 1019,5 8 0 0,0
15.01.2019 18:00:00 3,2 0,7 2,4 2,3 2,7 5,5 16 8 28 15 WSW 1019,5 21 0 0,0
15.01.2019 17:00:00 3,3 0,3 2,5 2,4 2,6 5,5 15 8 35 19 W 1019,6 35 0 0,0
15.01.2019 16:00:00 3,4 0,5 2,7 2,5 2,5 5,5 21 12 39 21 W 1019,6 35 0 0,0
15.01.2019 15:00:00 3,6 0,2 2,8 2,7 2,4 5,5 20 11 37 20 W 1019,6 31 0 0,0
15.01.2019 14:00:00 3,6 0,0 3,0 2,7 2,3 5,5 20 11 35 19 W 1020,2 44 0 0,0
15.01.2019 13:00:00 3,4 0,3 2,9 2,5 2,3 5,5 20 11 30 16 W 1020,5 32 0 0,0
15.01.2019 12:00:00 3,0 1,0 2,9 1,9 2,2 5,5 14 8 27 15 WSW 1021,0 16 0 0,0
15.01.2019 11:00:00 2,2 0,6 1,6 1,0 2,3 5,5 10 6 21 11 SW 1021,5 12 0 0,0
15.01.2019 10:00:00 1,2 0,3 0,6 0,6 2,3 5,5 11 6 21 11 SSW 1021,9 10 0 0,0
15.01.2019 09:00:00 0,8 -0,1 0,1 0,6 2,3 5,5 11 6 18 10 SW 1021,8 11 0 0,0
15.01.2019 08:00:00 0,5 -0,5 -0,1 0,6 2,4 5,5 9 5 19 10 SSW 1021,7 11 0 0,0
15.01.2019 07:00:00 0,6 -0,4 -0,1 0,6 2,4 5,5 14 8 23 12 SW 1021,8 10 0 0,0
15.01.2019 06:00:00 0,5 -0,4 -0,4 0,6 2,4 5,5 15 8 23 12 WSW 1022,1 14 0 0,0
15.01.2019 05:00:00 0,5 -0,4 -0,2 0,6 2,5 5,5 11 6 21 11 WSW 1022,6 16 0 0,0
15.01.2019 04:00:00 0,2 -0,7 -0,3 0,6 2,5 5,5 12 6 17 9 SW 1023,0 16 0 0,0
15.01.2019 03:00:00 0,3 -1,3 -0,5 0,6 2,6 5,5 11 6 17 9 SW 1022,6 23 0 0,0
15.01.2019 02:00:00 0,4 -1,5 -0,3 0,6 2,6 5,5 9 5 14 8 WSW 1022,6 29 0 0,0
15.01.2019 01:00:00 0,2 -1,4 -0,6 0,6 2,7 5,5 8 4 16 8 W 1022,2 24 0 0,0
15.01.2019 00:00:00 -0,2 -1,4 -1,1 0,7 2,8 5,5 8 4 15 8 WNW 1022,1 20 0 0,0
14.01.2019 23:00:00 0,0 -1,4 -0,9 0,7 2,9 5,4 10 5 23 12 WNW 1021,5 24 0 0,0
14.01.2019 22:00:00 0,2 -1,1 -0,3 0,7 3,0 5,4 13 7 31 17 WNW 1021,3 29 0 0,0
14.01.2019 21:00:00 0,0 -1,3 -0,8 0,8 3,1 5,4 16 9 27 15 WNW 1020,8 35 0 0,0
14.01.2019 20:00:00 0,1 -1,1 -0,9 0,9 3,2 5,4 15 8 27 15 WNW 1020,2 25 0 0,0
14.01.2019 19:00:00 0,2 -1,1 -0,5 1,1 3,3 5,4 19 10 34 18 NNW 1019,8 25 0 0,2
14.01.2019 18:00:00 0,5 -1,1 -1,0 1,3 3,4 5,4 12 6 34 18 NNW 1019,1 45 0 0,1
14.01.2019 17:00:00 1,1 -0,4 0,2 2,0 3,4 5,4 14 8 34 18 NW 1018,2 3,6 0 0,0
14.01.2019 16:00:00 1,6 -1,2 0,9 2,3 3,4 5,4 19 10 44 24 NNW 1017,0 48 29 0,0
14.01.2019 15:00:00 1,4 -0,3 0,4 2,7 3,5 5,4 15 8 41 22 NW 1016,2 44 6 0,1
14.01.2019 14:00:00 2,0 0,1 1,6 2,8 3,5 5,4 21 11 38 21 NNW 1015,3 39 6 0,0
14.01.2019 13:00:00 - - - - - - - - 26 14 - - - 0 0,1
14.01.2019 12:00:00 0,2 -0,3 -0,3 2,5 3,6 5,4 18 10 41 22 N 1014,9 1,9 0 0,5
14.01.2019 11:00:00 2,6 1,8 2,3 2,8 3,6 5,4 16 9 29 16 WNW 1012,9 19 0 0,0
14.01.2019 10:00:00 1,8 1,1 1,7 2,6 3,7 5,4 18 10 34 18 W 1012,8 43 0 0,5
14.01.2019 09:00:00 1,6 0,7 1,1 2,6 3,7 5,4 19 10 37 20 NW 1012,1 7 0 1,3
14.01.2019 08:00:00 3,2 1,2 2,3 2,8 3,8 5,4 17 9 38 20 WNW 1010,5 11 0 0,0
14.01.2019 07:00:00 3,4 0,9 2,4 2,8 3,9 5,4 19 11 35 19 WNW 1009,9 16 0 0,0
14.01.2019 06:00:00 3,5 1,0 2,6 2,8 3,9 5,4 20 11 39 21 NW 1009,2 33 0 0,0
14.01.2019 05:00:00 3,3 0,8 1,9 3,0 4,0 5,4 22 12 42 23 WNW 1008,7 36 0 0,0
14.01.2019 04:00:00 3,6 1,4 2,6 3,2 4,0 5,4 19 10 37 20 WNW 1008,3 32 0 0,0
14.01.2019 03:00:00 3,7 1,6 2,7 3,3 4,1 5,4 19 10 41 22 WNW 1007,7 32 0 0,0
14.01.2019 02:00:00 3,7 2,0 2,7 3,3 4,1 5,4 18 10 46 25 NW 1007,1 31 0 0,2
14.01.2019 01:00:00 3,2 2,2 2,3 3,6 4,2 5,4 11 6 35 19 NW 1006,5 29 0 0,4
14.01.2019 00:00:00 3,7 2,4 2,8 3,8 4,2 5,4 17 9 44 24 NW 1006,2 32 0 0,8
13.01.2019 23:00:00 3,9 2,6 3,2 4,2 4,2 5,4 18 10 59 32 NW 1005,9 5 0 0,4
13.01.2019 22:00:00 5,5 3,0 4,2 4,5 4,2 5,4 24 13 51 28 WNW 1004,3 60 0 0,1
13.01.2019 21:00:00 5,6 4,0 4,6 4,8 4,2 5,5 23 12 47 25 W 1004,3 10 0 0,8
13.01.2019 20:00:00 6,2 4,2 5,0 5,0 4,1 5,5 31 17 53 29 WNW 1004,3 14 0 0,1
13.01.2019 19:00:00 6,4 4,4 5,3 5,2 4,1 5,5 28 15 53 29 WNW 1004,3 43 0 0,1
13.01.2019 18:00:00 6,6 5,5 5,8 5,3 4,0 5,5 24 13 41 22 W 1004,6 15 0 0,1
13.01.2019 17:00:00 6,8 5,5 6,0 5,3 3,9 5,5 24 13 48 26 W 1004,6 63 0 0,1
13.01.2019 16:00:00 6,8 5,6 6,0 5,3 3,8 5,5 22 12 40 22 W 1004,9 10 0 0,1
13.01.2019 15:00:00 6,5 5,7 6,0 5,1 3,6 5,5 20 11 40 21 W 1005,6 31 0 1,9
13.01.2019 14:00:00 6,4 5,7 6,0 5,1 3,5 5,5 21 11 44 24 W 1006,8 4,8 0 0,6
13.01.2019 13:00:00 6,3 5,4 5,8 4,8 3,4 5,5 23 12 44 24 W 1007,2 10 0 0,1
13.01.2019 12:00:00 6,3 5,3 5,8 4,6 3,3 5,5 29 16 46 25 W 1008,4 6 0 0,0
13.01.2019 11:00:00 6,3 5,3 5,7 4,3 3,2 5,5 19 11 33 18 W 1009,2 51 0 0,1
13.01.2019 10:00:00 5,8 5,0 5,2 3,9 3,2 5,5 16 9 27 14 WSW 1009,8 37 0 0,9
13.01.2019 09:00:00 5,1 4,6 4,6 3,6 3,1 5,5 14 8 24 13 WSW 1010,5 10 0 1,4
13.01.2019 08:00:00 4,9 4,2 4,3 3,5 3,1 5,5 17 9 26 14 WSW 1010,3 11 0 0,0
13.01.2019 07:00:00 4,7 3,8 4,1 3,4 3,0 5,5 16 8 26 14 WSW 1011,1 23 0 0,0
13.01.2019 06:00:00 4,7 3,7 4,0 3,3 3,0 5,5 13 7 29 15 WSW 1012,1 32 0 0,0
13.01.2019 05:00:00 4,5 3,5 3,9 3,2 2,9 5,5 15 8 24 13 WSW 1013,0 31 0 0,0
13.01.2019 04:00:00 4,5 3,3 3,8 3,1 2,9 5,5 13 7 28 15 W 1013,4 31 0 0,0
13.01.2019 03:00:00 4,3 3,1 3,6 3,0 2,9 5,5 14 8 29 15 W 1013,8 20 0 0,0
13.01.2019 02:00:00 4,1 2,9 3,3 2,9 2,9 5,5 16 9 27 14 W 1014,2 23 0 0,0
13.01.2019 01:00:00 4,0 2,7 3,2 2,8 2,8 5,5 16 9 29 16 W 1014,4 25 0 0,0
13.01.2019 00:00:00 3,8 2,6 2,8 2,8 2,8 5,5 12 7 21 11 W 1014,9 25 0 0,0
12.01.2019 23:00:00 4,0 3,0 3,1 2,9 2,8 5,5 14 8 30 16 W 1014,7 18 0 0,1
12.01.2019 22:00:00 3,8 2,9 3,1 2,9 2,7 5,5 15 8 30 16 W 1015,1 9 0 0,2
12.01.2019 21:00:00 4,1 2,7 3,3 2,8 2,7 5,5 17 9 31 17 W 1015,3 16 0 0,0
12.01.2019 20:00:00 3,7 2,8 3,1 2,8 2,6 5,5 15 8 47 25 W 1015,5 18 0 0,8
12.01.2019 19:00:00 4,1 3,2 3,4 2,7 2,6 5,6 16 9 31 17 W 1015,9 39 0 0,1
12.01.2019 18:00:00 3,4 2,8 2,9 2,6 2,5 5,6 14 8 27 15 WSW 1016,5 9 0 0,7
12.01.2019 17:00:00 3,1 2,2 2,6 2,6 2,5 5,6 16 9 31 17 WSW 1016,9 11 0 0,2
12.01.2019 16:00:00 3,0 2,2 2,6 2,6 2,4 5,6 18 10 35 19 WSW 1017,5 6 0 0,0
12.01.2019 15:00:00 3,0 1,9 2,5 2,7 2,4 5,6 18 10 44 24 WSW 1018,3 11 0 0,0
12.01.2019 14:00:00 3,5 1,6 3,0 2,5 2,3 5,6 20 11 37 20 WSW 1019,1 16 0 0,0
12.01.2019 13:00:00 2,6 1,2 2,1 2,2 2,3 5,6 12 6 27 15 WSW 1020,9 9 0 0,0
12.01.2019 12:00:00 2,4 0,5 1,9 2,2 2,3 5,6 16 9 28 15 WSW 1021,7 11 0 0,0

tt = Température de l'air
td = dewpoint
tt 5cm = Température de l'air 5cm
tt -5cm = Température de l'air -5cm
tt -20cm = Température de l'air -20cm
tt -100cm = Température de l'air -100cm
ff = Vitesse du vent
fx = gusts
dd = Direction du vent
ppp = reduced air pressure
vv = visibility
sd = Ensoleillement
rr = Quantités de précipitations

stations d'obs. à proximité